Andrews AFB, MD

8:50 AM EST on November 22, 2017 (GMT -0500)
Andrews Air Force Base-Naf

Weather History for KADW - October, 2013

Change the Weather History Date:

Tuesday, October 29, 2013

  Actual Average Record
Temperature  
Mean Temperature 51 °F -  
Max Temperature 64 °F 60 °F 74 °F (2016)
Min Temperature 39 °F 40 °F 26 °F (2001)
Degree Days  
Heating Degree Days 14    
Growing Degree Days 1 (Base 50)    
Moisture  
Dew Point 41 °F    
Average Humidity 73    
Maximum Humidity 94    
Minimum Humidity 44    
Precipitation  
Precipitation 0.00 in - - ()
Sea Level Pressure  
Sea Level Pressure 30.36 in    
Wind  
Wind Speed 3 mph (NE)    
Max Wind Speed 8 mph    
Max Gust Speed -    
Visibility 10 miles    
Events      
Averages and records for this station are not official NWS values.
T = Trace of Precipitation, MM = Missing Value Source: NWS Daily Summary

Daily Weather History Graph

Daily Weather History Graph

Search for Another Location

Airport or City:

Trip Planner

Search our weather history database for the weather conditions in past years. The results will help you decide how hot, cold, wet, or windy it might be!

Date:

Astronomy

Oct. 29, 2013 Rise Set
Actual Time 7:31 AM EDT 6:10 PM EDT
Civil Twilight 7:04 AM EDT 6:37 PM EDT
Nautical Twilight 6:32 AM EDT 7:08 PM EDT
Astronomical Twilight 6:01 AM EDT 7:39 PM EDT
Moon 2:22 AM EDT (10/29) 3:20 PM EDT (10/29)
Length of Visible Light 11h 33m
Length of Day
10h 38m
Waning Crescent, 25% of the Moon is Illuminated
Oct 29
Waning Crescent
Nov 3
New
Nov 10
First Quarter
Nov 17
Full
Nov 25
Last Quarter

Hourly Weather History & Observations

Time (EDT) Temp. Windchill Dew Point Humidity Pressure Visibility Wind Dir Wind Speed Gust Speed Precip Events Conditions
12:58 AM 44.6 °F - 41.0 °F 87% 30.30 in 10.0 mi NNE 1.2 mph - N/A   Clear
1:58 AM 41.2 °F - 38.3 °F 89% 30.30 in 10.0 mi North 2.3 mph - N/A   Clear
2:58 AM 46.4 °F - 41.2 °F 82% 30.31 in 10.0 mi Calm Calm - N/A   Clear
3:58 AM 40.5 °F - 38.1 °F 91% 30.32 in 9.0 mi Calm Calm - N/A   Clear
4:58 AM 41.2 °F 36.6 °F 39.6 °F 94% 30.33 in 10.0 mi North 6.9 mph - N/A   Clear
5:58 AM 43.2 °F 40.5 °F 38.1 °F 82% 30.35 in 10.0 mi North 4.6 mph - N/A   Clear
6:58 AM 42.6 °F 39.9 °F 37.8 °F 83% 30.37 in 10.0 mi North 4.6 mph - N/A   Clear
7:58 AM 39.9 °F 36.7 °F 36.9 °F 89% 30.38 in 10.0 mi North 4.6 mph - N/A   Clear
8:58 AM 46.2 °F 43.3 °F 39.9 °F 79% 30.40 in 10.0 mi NNE 5.8 mph - N/A   Clear
9:58 AM 50.2 °F - 41.5 °F 72% 30.40 in 10.0 mi NE 8.1 mph - N/A   Clear
10:58 AM 53.4 °F - 43.5 °F 69% 30.40 in 10.0 mi ENE 5.8 mph - N/A   Clear
11:58 AM 57.6 °F - 45.5 °F 64% 30.40 in 10.0 mi NE 3.5 mph - N/A   Clear
12:58 PM 60.4 °F - 43.9 °F 54% 30.38 in 10.0 mi Variable 1.2 mph - N/A   Clear
1:58 PM 62.2 °F - 39.9 °F 44% 30.35 in 10.0 mi WSW 2.3 mph - N/A   Clear
2:58 PM 62.8 °F - 40.8 °F 45% 30.33 in 10.0 mi Variable 4.6 mph - N/A   Clear
3:58 PM 63.1 °F - 40.6 °F 44% 30.35 in 10.0 mi West 1.2 mph - N/A   Clear
4:58 PM 62.1 °F - 40.5 °F 45% 30.35 in 10.0 mi Calm Calm - N/A   Clear
5:58 PM 57.2 °F - 44.1 °F 62% 30.34 in 10.0 mi East 5.8 mph - N/A   Clear
6:58 PM 52.9 °F - 41.5 °F 65% 30.36 in 10.0 mi East 2.3 mph - N/A   Clear
7:58 PM 50.0 °F - 43.7 °F 79% 30.36 in 10.0 mi Calm Calm - N/A   Clear
8:58 PM 46.9 °F - 42.1 °F 83% 30.37 in 10.0 mi Calm Calm - N/A   Clear
9:58 PM 47.1 °F - 42.6 °F 84% 30.38 in 10.0 mi SSW 2.3 mph - N/A   Clear
10:58 PM 49.5 °F - 44.2 °F 82% 30.37 in 10.0 mi ESE 3.5 mph - N/A   Clear
11:58 PM 50.9 °F - 45.9 °F 83% 30.35 in 10.0 mi Calm Calm - N/A   Clear